星链-1669 (STARLINK-1669 )

导读

STARLINK-1669是美国SpaceX公司星链星座中的一颗卫星,于2021年2月16日发射入轨。星链计划旨在构建全球覆盖的低轨卫星互联网星座,可为全球提供高速宽带服务,部分卫星也支持美国太空军的军事通信与导弹追踪任务,是美国低轨卫星星座建设的重要组成部分,推动了全球卫星互联网的发展进程。

Basic Information
目录编号:
47624
目录名称:
STARLINK-1669
国际标识:
2021-012E
轨道中心:
EARTH
卫星名称:
星链-1669
卫星全名:
星链-1669 (STARLINK-1669 )
卫星状态:
已陨落 最后检测时间 2026-04-25
发射日期:
2021-02-16 UTC
国别 :
美国 (US)
星等 :
--
Orbit Information
数据来源 国际轨道数据
星历时间: 2026-04-25T05:28:01+0800
轨道信息已过期55天
半长轴: 6529.149km
偏心率: 0.0004488
轨道倾角: 53.010°
近地点辐角 283.164°
升交点赤经 115.637°
平近点角 76.891°
近地点: 148.081km
远地点: 153.943km
周期: 87.507分钟
每日圈数: 16.45576
Detailed Information
固有亮度:
5
最大亮度:
2.5
卫星平台:
Starlink V1.0
覆盖范围:
全球
运营商:
太空探索技术公司
运营商所在国:
美国
制造商(研发单位):
太空探索技术公司
制造商所在国:
美国
使用方式:
暂无
Satellite Introduction
星链(Starlink)计划是由太空探索技术公司(SpaceX)提出的一个巨型低轨卫星互联网星座项目,计划在2019年至2024年间在太空搭建由约1.2万颗卫星组成的“星链”网络,其中1584颗将部署在地球上空550千米处的近地轨道,并从2020年开始工作。该卫星仍在工作。